Temp
-10 -9 -10 -10 -10 -10 -11 -11 -11 -11 -11 -11 -11 -11 -11 -11 -11 -11 -11 -11 -11 -11 -10 -10 -10 -9 -10 -10 -11 -10 -10 -10 -10 -10 -10 -10 -9 -9 -9 -10 -10 -10 -10 -10 -10 -10 -10 -10 -10
-10 -10 -10 -10 -9 -12 -11 -11 -11 -11 -11 -11 -11 -11 -11 -11 -11 -11 -11 -11 -11 -11 -11 -11 -10 -10 -10 -10 -10 -10 -11 -11 -11 -10 -10 -10 -10 -10 -10 -10 -10 -10 -10 -10 -10 -10 -10 -10 -10
-9 -10 -10 -10 -10 -10 -11 -11 -11 -11 -11 -11 -10 -10 -11 -11 -11 -11 -11 -11 -11 -11 -11 -11 -11 -10 -10 -10 -11 -11 -11 -11 -11 -11 -10 -11 -11 -11 -10 -11 -11 -10 -10 -10 -10 -10 -10 -10 -10
-9 -10 -10 -10 -10 -10 -10 -10 -11 -11 -11 -11 -11 -10 -10 -10 -11 -11 -11 -11 -11 -11 -11 -11 -11 -11 -11 -11 -11 -11 -11 -11 -11 -11 -11 -11 -11 -11 -11 -11 -11 -11 -11 -11 -10 -10 -10 -10 -10
-9 -10 -10 -10 -10 -10 -10 -10 -10 -10 -11 -11 -11 -11 -10 -11 -11 -11 -11 -11 -11 -11 -11 -11 -11 -11 -11 -11 -11 -11 -11 -11 -11 -11 -11 -11 -11 -11 -11 -11 -11 -11 -11 -11 -11 -10 -10 -10 -10
-9 -10 -9 -10 -10 -10 -10 -10 -10 -10 -10 -10 -10 -10 -11 -11 -11 -11 -11 -11 -11 -11 -11 -11 -11 -11 -11 -11 -11 -11 -11 -11 -11 -11 -11 -11 -11 -11 -11 -11 -11 -11 -11 -11 -11 -11 -11 -10 -10
-9 -9 -9 -10 -10 -10 -10 -10 -10 -10 -10 -10 -10 -10 -10 -11 -11 -11 -11 -11 -11 -11 -11 -11 -11 -11 -11 -11 -11 -11 -11 -11 -11 -11 -11 -11 -11 -11 -11 -11 -11 -11 -11 -11 -11 -11 -11 -11 -11
-10 -10 -10 -10 -10 -10 -10 -10 -10 -10 -10 -10 -10 -10 -10 -11 -11 -11 -11 -11 -11 -11 -11 -11 -11 -11 -11 -11 -11 -11 -11 -11 -11 -11 -11 -11 -11 -11 -11 -11 -11 -11 -11 -11 -11 -11 -11 -11 -11
-10 -10 -10 -10 -10 -10 -10 -10 -10 -10 -10 -10 -10 -10 -10 -10 -10 -11 -11 -11 -11 -11 -11 -11 -11 -11 -11 -11 -11 -11 -11 -11 -11 -11 -11 -11 -11 -11 -11 -11 -11 -11 -11 -11 -11 -11 -11 -11 -10
-10 -10 -10 -10 -10 -10 -10 -10 -10 -10 -10 -10 -10 -10 -10 -10 -10 -10 -11 -11 -10 -10 -11 -11 -11 -11 -11 -11 -11 -11 -11 -11 -11 -11 -11 -11 -11 -11 -11 -11 -11 -11 -11 -11 -11 -10 -10 -10 -10
-10 -10 -10 -10 -10 -10 -10 -10 -10 -10 -10 -10 -10 -10 -10 -10 -10 -10 -10 -10 -10 -10 -11 -11 -11 -11 -11 -11 -11 -11 -11 -11 -11 -11 -11 -11 -11 -11 -11 -11 -11 -11 -11 -11 -11 -10 -10 -10 -10
-10 -10 -10 -10 -10 -10 -10 -10 -10 -10 -10 -10 -10 -10 -10 -10 -10 -10 -10 -10 -10 -10 -10 -10 -10 -11 -11 -11 -11 -11 -11 -11 -11 -11 -11 -11 -11 -11 -11 -11 -11 -11 -11 -11 -11 -11 -10 -10 -10
-10 -10 -10 -10 -10 -10 -10 -10 -10 -10 -10 -10 -10 -10 -10 -10 -10 -10 -10 -10 -10 -10 -10 -10 -10 -10 -10 -11 -11 -11 -11 -11 -11 -11 -11 -11 -11 -11 -11 -11 -11 -11 -11 -11 -10 -11 -10 -10 -10
-10 -11 -11 -11 -10 -10 -10 -10 -10 -10 -10 -10 -10 -10 -10 -10 -10 -10 -10 -10 -10 -10 -10 -10 -10 -10 -10 -10 -10 -11 -11 -11 -11 -11 -11 -11 -11 -11 -11 -11 -11 -11 -11 -10 -10 -10 -10 -10 -10
-11 -11 -11 -11 -11 -10 -10 -10 -11 -10 -10 -10 -10 -10 -10 -10 -10 -10 -10 -10 -10 -10 -10 -10 -10 -10 -10 -10 -10 -11 -11 -11 -11 -11 -11 -11 -11 -11 -11 -11 -11 -11 -11 -11 -11 -11 -10 -10 -10
-11 -11 -11 -11 -11 -11 -11 -10 -10 -10 -10 -10 -10 -10 -10 -10 -10 -10 -10 -10 -10 -10 -10 -10 -10 -10 -10 -10 -10 -11 -11 -11 -11 -11 -11 -11 -11 -11 -11 -11 -11 -11 -11 -11 -11 -11 -11 -11 -11
-11 -11 -11 -11 -11 -11 -11 -10 -11 -10 -10 -10 -10 -10 -10 -10 -10 -10 -10 -10 -10 -10 -10 -10 -11 -11 -11 -10 -10 -11 -11 -11 -11 -11 -11 -11 -11 -11 -11 -11 -12 -12 -12 -11 -11 -11 -11 -11 -11
-11 -11 -11 -11 -11 -11 -11 -10 -11 -10 -10 -10 -10 -10 -10 -10 -10 -10 -10 -10 -10 -10 -10 -10 -11 -11 -10 -11 -10 -10 -10 -11 -11 -11 -11 -11 -11 -11 -11 -12 -12 -11 -12 -12 -12 -12 -12 -12 -12
-11 -11 -11 -11 -11 -11 -11 -10 -10 -11 -10 -11 -11 -10 -10 -11 -10 -10 -10 -10 -10 -10 -10 -11 -11 -11 -11 -11 -10 -10 -11 -11 -11 -11 -11 -11 -12 -12 -12 -12 -12 -11 -12 -12 -12 -12 -12 -12 -12
-12 -12 -11 -12 -11 -11 -11 -10 -10 -11 -11 -10 -11 -11 -11 -11 -11 -10 -10 -10 -10 -11 -11 -11 -11 -11 -11 -11 -11 -10 -10 -11 -11 -12 -12 -12 -12 -12 -11 -12 -12 -12 -12 -12 -12 -12 -12 -12 -12
-12 -12 -12 -12 -11 -11 -11 -10 -11 -10 -11 -11 -11 -11 -11 -11 -11 -11 -10 -11 -11 -11 -11 -11 -11 -11 -11 -11 -11 -11 -11 -11 -11 -12 -12 -11 -12 -12 -12 -12 -12 -12 -12 -12 -12 -12 -12 -12 -12
-12 -12 -12 -12 -12 -11 -11 -10 -10 -11 -10 -11 -11 -11 -11 -11 -11 -11 -11 -11 -11 -11 -11 -11 -11 -11 -11 -11 -11 -11 -11 -11 -11 -11 -12 -12 -12 -12 -12 -12 -12 -12 -12 -12 -12 -12 -12 -12 -12
-12 -12 -12 -12 -12 -11 -11 -11 -10 -10 -11 -11 -11 -11 -11 -11 -11 -11 -11 -11 -11 -11 -11 -11 -11 -11 -11 -11 -11 -11 -11 -11 -11 -11 -12 -12 -12 -12 -12 -12 -12 -12 -12 -12 -12 -12 -12 -12 -13
-12 -13 -13 -13 -12 -11 -11 -11 -9 -10 -10 -10 -11 -11 -11 -11 -11 -11 -11 -11 -11 -11 -11 -11 -11 -11 -11 -11 -11 -10 -11 -11 -11 -11 -12 -12 -12 -12 -12 -12 -12 -12 -12 -13 -13 -12 -13 -13 -13
-13 -13 -13 -13 -12 -11 -11 -11 -10 -10 -10 -10 -11 -11 -11 -11 -11 -11 -11 -11 -11 -11 -11 -11 -11 -11 -11 -11 -11 -11 -11 -11 -11 -11 -12 -12 -12 -12 -13 -13 -12 -13 -13 -12 -12 -13 -13 -13 -13
-14 -14 -13 -13 -13 -11 -11 -10 -9 -10 -10 -11 -11 -11 -11 -11 -11 -11 -11 -11 -11 -11 -11 -11 -11 -11 -11 -11 -11 -10 -11 -11 -12 -12 -12 -12 -12 -12 -12 -13 -13 -13 -13 -13 -13 -13 -13 -13 -13
-13 -13 -14 -15 -14 -12 -11 -10 -10 -10 -11 -11 -11 -10 -11 -11 -11 -11 -11 -11 -11 -11 -11 -11 -11 -11 -11 -11 -11 -11 -11 -11 -12 -13 -12 -13 -13 -13 -13 -13 -13 -12 -12 -12 -12 -12 -13 -13 -13
-14 -14 -14 -15 -14 -13 -11 -10 -10 -10 -11 -11 -11 -11 -11 -11 -11 -11 -12 -12 -12 -12 -12 -12 -12 -11 -11 -11 -11 -11 -11 -11 -12 -13 -13 -13 -13 -13 -13 -13 -13 -13 -13 -13 -13 -13 -13 -13 -14
-16 -15 -15 -15 -15 -14 -12 -11 -10 -10 -11 -11 -11 -11 -11 -12 -12 -12 -12 -12 -12 -12 -12 -12 -12 -12 -12 -12 -12 -12 -12 -12 -13 -14 -14 -13 -13 -13 -13 -13 -13 -13 -13 -13 -13 -13 -14 -14 -14
-15 -15 -16 -15 -15 -15 -15 -11 -11 -11 -12 -12 -12 -12 -12 -12 -13 -13 -13 -13 -13 -13 -13 -12 -12 -12 -12 -12 -12 -13 -13 -13 -13 -14 -14 -13 -13 -13 -12 -12 -12 -13 -13 -13 -13 -13 -14 -14 -14
Height
5851 5852 5853 5855 5858 5856 5856 5858 5857 5857 5856 5855 5855 5855 5855 5855 5855 5858 5856 5855 5856 5856 5856 5856 5857 5857 5858 5859 5862 5862 5864 5866 5868 5869 5871 5873 5874 5875 5876 5876 5877 5878 5878 5879 5879 5880 5881 5882 5881
5852 5853 5855 5855 5857 5856 5858 5858 5858 5859 5858 5858 5858 5858 5858 5858 5858 5858 5858 5857 5857 5857 5857 5858 5858 5858 5859 5860 5862 5862 5863 5865 5867 5868 5871 5872 5873 5874 5875 5875 5875 5876 5877 5877 5878 5878 5879 5879 5880
5853 5855 5856 5857 5857 5857 5859 5859 5860 5860 5859 5859 5860 5860 5860 5860 5860 5860 5860 5859 5860 5860 5860 5860 5861 5860 5862 5862 5863 5863 5864 5866 5868 5868 5870 5872 5873 5873 5875 5875 5876 5876 5877 5876 5877 5877 5878 5878 5879
5854 5855 5857 5858 5859 5861 5861 5860 5861 5862 5861 5861 5861 5862 5862 5861 5861 5862 5862 5861 5862 5862 5863 5862 5862 5862 5863 5864 5864 5865 5866 5868 5868 5869 5870 5871 5872 5873 5874 5874 5875 5875 5876 5877 5876 5877 5877 5877 5877
5854 5855 5857 5858 5861 5862 5863 5862 5862 5862 5862 5862 5862 5863 5863 5864 5864 5864 5864 5864 5864 5864 5864 5864 5864 5865 5865 5866 5866 5866 5867 5868 5869 5869 5870 5871 5872 5873 5873 5874 5874 5875 5875 5876 5876 5876 5876 5876 5876
5855 5856 5858 5859 5862 5863 5864 5864 5863 5863 5863 5863 5863 5864 5865 5865 5865 5865 5865 5865 5865 5865 5865 5866 5866 5866 5866 5868 5868 5868 5868 5869 5869 5871 5871 5872 5872 5873 5873 5873 5874 5874 5874 5874 5875 5875 5875 5875 5876
5855 5857 5857 5859 5863 5864 5865 5865 5865 5864 5865 5865 5864 5865 5866 5866 5866 5866 5867 5867 5867 5867 5867 5867 5866 5867 5868 5868 5868 5868 5869 5870 5869 5871 5871 5871 5872 5872 5873 5873 5873 5874 5873 5873 5874 5873 5874 5874 5875
5855 5857 5857 5859 5864 5865 5866 5866 5866 5866 5866 5866 5865 5866 5866 5866 5866 5867 5867 5867 5868 5868 5868 5869 5869 5869 5870 5869 5868 5868 5869 5870 5870 5870 5871 5871 5872 5872 5872 5872 5872 5872 5872 5873 5873 5873 5873 5874 5874
5855 5857 5858 5858 5862 5864 5866 5866 5866 5866 5866 5866 5865 5866 5866 5866 5866 5866 5867 5867 5868 5868 5868 5868 5869 5869 5869 5868 5868 5869 5869 5870 5869 5870 5871 5871 5871 5871 5871 5871 5871 5872 5872 5872 5872 5872 5872 5872 5873
5854 5857 5856 5857 5861 5864 5865 5866 5866 5866 5866 5866 5866 5865 5866 5866 5866 5866 5867 5867 5867 5867 5867 5867 5868 5867 5867 5867 5868 5868 5868 5869 5869 5869 5870 5870 5870 5870 5870 5870 5870 5870 5870 5870 5870 5870 5871 5872 5872
5853 5855 5856 5857 5859 5862 5864 5865 5865 5866 5865 5866 5866 5866 5866 5866 5866 5866 5866 5867 5867 5867 5867 5867 5867 5867 5867 5867 5867 5867 5867 5868 5868 5868 5869 5869 5869 5868 5868 5868 5868 5868 5868 5868 5868 5868 5869 5869 5869
5851 5853 5854 5856 5857 5860 5862 5863 5865 5865 5866 5865 5865 5866 5865 5866 5866 5866 5866 5866 5866 5866 5866 5866 5866 5866 5866 5866 5866 5867 5866 5867 5867 5866 5866 5867 5866 5866 5866 5865 5865 5866 5865 5865 5866 5866 5866 5866 5866
5847 5851 5852 5854 5854 5857 5859 5861 5863 5863 5864 5864 5864 5864 5864 5864 5865 5866 5866 5866 5866 5866 5866 5865 5865 5865 5865 5865 5865 5865 5865 5865 5865 5865 5864 5864 5864 5864 5863 5863 5863 5863 5863 5863 5863 5863 5863 5863 5862
5845 5847 5848 5851 5852 5854 5857 5858 5860 5860 5862 5862 5862 5862 5863 5863 5864 5864 5865 5865 5865 5865 5865 5864 5864 5864 5864 5863 5863 5863 5863 5863 5862 5863 5862 5863 5862 5861 5860 5860 5859 5859 5859 5859 5859 5859 5859 5858 5858
5839 5842 5844 5847 5848 5851 5853 5856 5857 5858 5859 5859 5860 5861 5861 5861 5862 5863 5864 5864 5864 5863 5864 5863 5863 5862 5862 5861 5861 5861 5860 5860 5860 5859 5858 5858 5859 5857 5856 5856 5855 5855 5855 5855 5854 5854 5853 5853 5852
5834 5838 5840 5843 5844 5847 5848 5853 5853 5855 5857 5856 5857 5858 5859 5860 5861 5861 5862 5862 5862 5862 5862 5862 5861 5860 5860 5860 5859 5859 5858 5857 5856 5856 5855 5854 5854 5853 5853 5853 5852 5850 5850 5850 5849 5848 5848 5846 5845
5830 5834 5834 5837 5839 5842 5843 5848 5849 5851 5853 5854 5855 5855 5856 5857 5857 5858 5859 5859 5859 5859 5859 5859 5859 5857 5857 5856 5856 5855 5854 5854 5852 5851 5850 5849 5849 5850 5848 5848 5847 5846 5845 5844 5843 5843 5842 5841 5838
5825 5827 5829 5832 5834 5836 5839 5843 5844 5847 5849 5851 5852 5853 5854 5854 5853 5855 5855 5856 5857 5856 5856 5855 5855 5854 5853 5852 5851 5850 5849 5848 5847 5846 5846 5845 5843 5844 5843 5843 5842 5841 5840 5839 5838 5837 5835 5834 5831
5818 5822 5825 5826 5829 5831 5833 5837 5840 5842 5845 5847 5848 5849 5851 5850 5850 5850 5852 5852 5852 5852 5851 5851 5850 5849 5848 5848 5846 5844 5843 5842 5841 5840 5839 5838 5837 5837 5836 5836 5834 5834 5833 5832 5830 5828 5827 5826 5825
5813 5815 5820 5822 5823 5824 5827 5831 5835 5837 5840 5842 5844 5846 5846 5847 5846 5846 5847 5847 5847 5847 5846 5845 5845 5844 5842 5841 5840 5839 5837 5835 5834 5833 5830 5830 5829 5828 5828 5828 5827 5826 5825 5824 5822 5820 5818 5816 5815
5807 5811 5814 5815 5814 5819 5819 5825 5829 5832 5835 5838 5841 5841 5842 5841 5842 5842 5842 5842 5843 5841 5840 5839 5838 5837 5836 5834 5833 5832 5830 5828 5826 5825 5821 5821 5821 5820 5819 5819 5818 5817 5816 5815 5814 5812 5809 5807 5805
5801 5803 5806 5807 5808 5811 5814 5814 5824 5828 5830 5833 5835 5834 5835 5836 5837 5837 5836 5837 5837 5836 5835 5834 5832 5830 5829 5827 5825 5824 5822 5821 5818 5817 5816 5813 5812 5811 5810 5810 5809 5808 5807 5806 5804 5802 5800 5798 5796
5793 5795 5798 5800 5801 5803 5807 5806 5817 5822 5824 5828 5830 5829 5829 5830 5831 5830 5830 5828 5831 5830 5828 5826 5826 5824 5822 5820 5817 5815 5814 5812 5811 5809 5808 5806 5803 5802 5801 5800 5800 5799 5797 5796 5794 5793 5790 5788 5785
5784 5787 5788 5792 5794 5795 5801 5803 5800 5815 5817 5821 5823 5823 5823 5823 5823 5823 5823 5823 5822 5822 5821 5820 5818 5816 5814 5811 5809 5806 5805 5804 5801 5801 5800 5797 5795 5794 5793 5791 5789 5788 5787 5785 5783 5781 5780 5777 5773
5774 5777 5780 5783 5785 5789 5791 5796 5792 5801 5810 5812 5815 5815 5814 5816 5815 5815 5815 5815 5815 5815 5813 5812 5810 5808 5806 5804 5801 5798 5795 5794 5793 5792 5792 5789 5787 5786 5784 5782 5780 5778 5777 5775 5772 5770 5767 5766 5762
5766 5768 5772 5770 5775 5781 5782 5786 5790 5790 5797 5803 5803 5805 5806 5807 5807 5806 5805 5807 5805 5804 5803 5803 5801 5800 5798 5796 5792 5789 5787 5785 5784 5783 5783 5780 5779 5776 5773 5771 5769 5767 5765 5763 5761 5757 5754 5752 5749
5756 5758 5764 5760 5766 5767 5773 5781 5782 5785 5786 5787 5792 5795 5796 5797 5796 5796 5795 5795 5794 5794 5792 5792 5791 5790 5790 5788 5784 5780 5777 5775 5774 5773 5773 5771 5770 5766 5763 5762 5759 5756 5754 5752 5749 5746 5742 5740 5737
5743 5748 5749 5749 5753 5755 5763 5769 5773 5777 5777 5777 5776 5778 5782 5785 5785 5784 5784 5783 5782 5782 5781 5780 5778 5779 5779 5777 5775 5772 5769 5766 5763 5762 5761 5759 5757 5756 5754 5750 5748 5745 5743 5740 5738 5735 5731 5728 5725
5734 5734 5737 5740 5743 5744 5750 5757 5764 5768 5767 5766 5764 5764 5766 5767 5771 5770 5769 5769 5769 5768 5768 5768 5767 5765 5765 5762 5762 5760 5758 5756 5753 5751 5749 5746 5743 5742 5741 5738 5734 5732 5729 5727 5724 5721 5718 5715 5712
5719 5725 5725 5725 5732 5731 5737 5748 5757 5758 5756 5753 5753 5755 5753 5754 5750 5749 5753 5754 5752 5752 5754 5755 5754 5753 5752 5751 5749 5748 5746 5744 5743 5739 5736 5733 5730 5730 5727 5724 5721 5718 5715 5713 5710 5708 5705 5702 5699
Wind_Speed
14 14 12 11 12 13 12 7 7 7 7 8 8 9 10 10 10 10 10 9 10 11 9 9 8 5 4 5 9 11 8 9 16 11 7 9 10 11 10 9 8 7 7 6 8 7 7 8 8
15 14 13 11 7 14 7 8 8 8 8 7 8 8 8 8 9 9 10 10 10 12 12 12 11 8 6 4 6 7 7 8 6 5 3 3 4 3 3 3 3 5 6 6 6 6 8 8 6
15 14 13 10 12 12 9 7 8 8 9 9 9 9 9 8 8 8 8 9 10 11 11 11 11 12 10 10 7 5 4 2 2 3 1 1 1 2 2 3 3 2 4 4 4 4 4 4 3
14 13 12 8 11 10 9 7 7 6 7 7 8 9 10 10 10 10 10 10 10 10 10 10 10 11 11 12 12 11 7 2 1 1 2 3 4 5 4 4 4 4 4 4 4 4 4 3 2
13 13 9 9 7 6 6 6 6 6 5 5 6 6 7 8 8 9 9 10 10 11 11 12 12 11 10 10 11 9 7 6 6 5 3 1 1 2 3 3 3 4 4 3 4 4 4 5 5
12 12 10 8 6 4 4 4 5 4 4 5 5 5 5 5 5 6 6 7 8 9 9 9 10 11 11 10 11 9 7 6 5 5 4 3 3 4 4 4 5 5 4 4 5 5 7 7 6
12 10 9 9 5 4 4 3 4 3 2 2 3 4 4 4 5 5 4 4 5 6 7 8 8 7 7 7 8 8 8 7 7 5 4 4 4 4 5 5 5 6 6 7 8 9 8 7 7
12 10 9 9 6 4 3 3 2 2 3 2 1 2 2 4 4 5 6 5 4 4 4 5 6 6 5 5 5 6 5 5 4 3 4 3 3 4 5 6 7 8 8 8 8 9 9 9 8
13 12 10 9 7 5 3 2 1 1 1 2 2 1 1 2 4 5 5 6 6 6 6 5 5 5 6 6 5 4 3 3 3 2 2 2 3 4 5 6 7 8 9 10 10 11 10 8 7
14 14 13 10 9 7 5 3 3 3 3 1 1 2 2 2 3 4 5 6 7 8 8 8 8 8 8 7 6 6 5 5 6 6 6 5 5 5 7 7 8 10 11 12 12 11 10 9 10
18 18 14 13 10 9 8 7 6 6 4 4 3 3 3 3 3 4 5 6 7 8 9 10 10 9 9 8 7 7 6 7 8 10 10 9 9 9 8 9 9 10 12 14 12 10 11 13 13
22 22 19 16 14 13 11 10 10 9 5 7 7 4 4 3 2 2 3 5 7 8 10 11 11 12 11 10 10 9 9 9 9 12 12 11 13 12 10 12 11 11 13 13 12 13 14 15 17
26 24 23 20 17 16 14 13 11 15 8 10 10 7 6 4 2 2 2 2 4 6 8 10 11 12 13 14 12 12 12 13 13 13 15 14 14 14 15 14 15 14 14 15 16 17 18 20 22
26 28 26 24 20 19 18 16 13 19 11 12 12 11 7 7 5 5 4 5 6 7 8 10 12 13 13 15 15 16 16 16 17 16 17 16 17 17 17 17 17 17 18 19 21 22 23 25 27
29 31 29 26 23 21 22 17 16 18 15 13 13 11 10 8 7 6 5 6 7 9 10 13 13 14 15 17 17 18 20 19 21 20 19 19 18 18 20 21 22 22 21 23 26 28 28 29 31
31 32 30 28 25 24 24 17 19 19 17 14 13 11 10 10 8 9 8 9 9 11 13 12 15 16 17 19 20 21 22 23 23 24 23 23 22 23 22 21 23 25 26 27 29 31 33 36 37
32 31 31 30 27 25 27 20 20 21 18 13 12 12 11 12 13 13 11 12 12 13 15 16 16 18 19 20 21 22 24 25 27 28 27 28 27 26 27 26 26 28 28 29 32 34 35 37 41
33 34 33 30 30 28 28 22 23 22 19 15 13 14 12 12 15 14 14 15 16 18 19 21 20 23 24 25 25 25 25 26 28 30 30 31 33 29 31 30 29 30 30 30 32 33 35 36 39
35 34 32 33 31 29 30 25 23 23 20 17 18 16 14 15 18 18 17 19 20 22 23 24 26 27 28 28 28 28 27 28 28 31 32 33 34 34 34 33 35 34 34 34 35 36 38 38 38
35 36 32 32 33 33 32 28 25 25 23 22 19 18 18 19 21 22 22 23 24 25 26 26 27 28 30 31 31 30 29 30 30 30 35 36 37 38 38 37 38 37 38 39 41 42 43 43 45
37 37 33 34 37 33 36 30 28 28 26 24 21 22 22 23 24 25 25 24 24 25 27 28 29 30 32 36 34 33 30 32 32 33 37 38 39 39 41 40 41 42 42 43 44 45 46 47 46
38 38 38 37 39 38 37 37 31 29 28 26 25 26 26 27 27 27 28 27 26 28 29 31 31 32 35 38 37 36 35 32 33 34 35 38 39 41 42 43 44 44 44 45 45 47 48 48 49
41 40 40 39 42 41 39 42 29 30 32 30 27 29 30 30 30 32 31 33 29 31 33 33 33 34 38 40 41 38 38 33 34 34 34 36 39 41 41 42 42 43 44 46 47 47 48 50 51
43 43 43 42 44 44 40 41 42 30 33 32 31 33 33 33 34 35 35 34 35 35 37 36 36 39 41 43 42 41 39 37 35 35 34 36 38 40 40 40 41 43 45 46 48 49 49 50 51
45 45 44 45 47 46 47 44 47 40 34 36 35 37 38 36 38 38 38 36 38 38 39 39 40 41 42 43 44 44 42 40 38 36 35 39 40 40 41 42 44 46 47 48 50 51 52 54 54
44 45 45 48 48 48 50 47 45 48 43 39 41 41 41 41 40 42 43 41 42 43 43 42 43 43 44 45 45 43 44 43 41 37 36 40 40 42 43 44 45 46 47 47 49 50 51 51 52
49 50 46 49 50 53 52 47 49 49 50 50 46 44 43 43 44 45 46 46 46 46 48 47 47 46 45 44 45 42 41 41 42 40 38 38 38 41 43 43 44 45 46 46 48 49 50 50 50
53 52 52 53 55 56 54 51 48 49 51 52 54 53 49 46 46 48 48 49 50 50 51 51 51 49 47 46 46 44 43 43 45 43 41 43 44 44 44 46 47 48 49 49 50 50 50 51 51
51 53 55 55 55 57 57 55 51 49 51 53 55 56 55 54 51 51 52 53 54 53 52 52 53 52 50 51 48 48 44 44 45 41 41 44 46 46 45 48 50 51 51 50 50 52 52 51 53
53 53 56 59 58 59 58 56 52 51 54 56 56 55 56 54 57 58 55 55 56 55 53 53 54 54 53 52 54 48 45 45 48 49 49 51 51 50 52 53 54 54 53 53 53 53 53 53 55
Wind_Direction
122 109 107 115 114 94 77 74 69 63 48 48 50 53 57 65 66 69 63 53 54 56 52 73 95 98 16 6 94 115 130 208 207 193 205 226 236 245 255 265 271 273 268 266 277 275 280 279 292
121 117 113 108 126 84 98 84 72 70 67 58 52 56 55 56 60 62 65 65 56 55 55 61 71 95 98 124 122 122 127 142 164 154 183 214 222 247 267 285 287 272 276 277 275 270 269 279 279
129 122 112 110 92 94 100 98 83 74 73 69 61 59 59 60 57 53 52 54 57 55 56 53 60 69 73 75 96 115 117 130 141 115 139 234 274 288 272 273 259 264 278 281 290 283 269 272 285
136 127 124 105 102 96 97 96 87 77 73 73 66 63 68 63 65 65 64 57 57 58 54 59 58 59 59 65 72 78 83 105 282 309 267 272 271 277 284 285 287 285 279 277 276 271 286 278 280
142 137 134 121 119 119 113 105 92 78 74 68 67 60 66 71 65 59 58 61 61 61 57 55 57 59 61 59 63 67 68 68 73 73 67 47 344 312 301 297 303 293 283 291 290 287 273 271 262
151 143 144 131 145 153 144 132 115 97 65 50 53 52 50 53 63 62 50 44 48 48 50 50 57 58 58 57 63 60 53 48 50 40 32 4 348 330 316 316 308 304 306 294 276 271 267 266 264
164 158 147 138 170 169 161 148 133 135 122 52 29 48 33 26 17 23 37 38 32 40 35 33 35 39 49 55 61 61 58 51 47 32 13 349 330 323 310 301 289 278 275 269 264 266 265 269 277
179 170 164 152 179 172 194 195 181 133 114 107 62 22 16 357 356 350 348 350 356 2 11 18 21 20 20 26 30 36 31 31 33 29 31 19 347 325 308 296 285 277 269 265 265 268 273 276 273
197 190 188 172 193 200 221 240 260 269 67 81 75 82 14 349 343 333 330 334 334 336 332 335 336 344 349 351 353 2 355 343 331 325 306 295 282 274 275 280 282 282 279 275 275 277 277 270 257
209 209 205 195 201 221 240 255 287 289 289 314 13 5 20 346 320 327 323 320 320 326 330 331 328 329 330 330 324 319 311 307 305 303 301 297 277 272 269 271 272 272 275 276 274 274 263 257 256
219 218 217 215 213 229 249 265 276 295 286 274 276 314 339 344 329 319 320 323 320 321 321 321 322 321 318 321 315 303 294 292 294 294 291 290 286 286 282 280 285 283 278 274 270 261 258 263 264
224 226 222 221 224 235 248 260 273 279 297 276 266 274 299 317 359 8 341 332 323 319 319 323 324 320 317 312 307 293 291 291 288 292 294 291 284 282 279 277 281 277 274 263 262 266 269 271 272
228 230 230 229 231 237 245 259 268 278 282 279 272 268 278 275 284 323 344 349 334 331 327 324 317 319 317 308 300 293 287 292 294 292 295 295 292 285 281 273 278 275 262 260 260 264 267 271 275
231 233 232 233 235 241 246 253 263 267 284 274 273 274 260 254 263 279 310 328 331 336 334 326 323 319 311 304 303 296 290 287 292 293 291 293 296 293 286 281 279 272 262 257 261 263 267 272 275
231 234 233 234 236 242 247 250 256 268 275 271 271 272 263 254 259 284 304 325 334 334 336 328 323 316 310 305 300 297 294 290 288 288 288 288 290 292 294 293 289 283 276 269 268 270 272 272 275
233 234 235 236 238 240 249 244 253 264 270 267 269 261 256 263 269 281 300 309 318 331 336 336 330 327 318 309 304 297 292 291 288 286 287 286 286 287 288 290 291 289 286 281 277 276 277 280 280
235 235 237 235 239 242 249 243 253 258 264 257 259 258 260 270 277 280 293 295 306 316 323 328 329 327 324 321 316 306 298 293 288 288 287 288 288 287 287 288 287 285 286 286 285 284 285 286 288
237 235 238 239 236 244 247 242 249 257 251 247 251 255 262 270 272 281 290 292 299 307 310 313 315 314 316 320 315 307 302 295 289 286 285 283 285 284 285 286 283 283 285 286 288 289 288 286 286
238 240 240 245 245 246 249 242 247 250 246 242 244 252 262 269 277 284 284 291 297 301 304 306 309 309 311 314 314 305 298 292 292 285 282 280 280 281 281 280 281 283 286 287 287 287 286 287 288
243 243 241 244 247 247 247 242 244 245 245 240 245 259 263 268 274 279 287 292 297 300 301 303 307 308 312 314 311 311 299 290 283 282 277 275 275 275 276 278 281 282 283 283 285 286 288 289 289
243 245 245 246 249 247 247 245 246 243 245 251 250 255 262 266 274 282 286 289 294 298 297 303 305 308 311 312 310 309 302 291 279 276 277 276 274 275 276 275 275 277 279 282 284 286 287 288 290
244 247 245 245 249 248 251 256 242 247 246 246 253 258 262 268 276 282 285 287 289 292 294 297 299 304 310 308 306 302 301 293 281 277 279 280 278 275 276 276 277 278 280 283 284 286 287 289 288
247 246 248 248 249 249 251 259 250 249 249 248 252 261 267 272 276 277 279 286 288 289 292 292 296 299 304 308 305 299 295 292 281 279 283 280 276 275 276 278 278 279 280 282 285 287 288 289 290
247 249 249 248 250 251 252 260 264 251 253 252 253 259 265 270 274 275 278 280 285 288 291 291 294 297 302 308 306 299 291 289 285 278 277 278 277 277 278 277 278 279 281 283 284 286 287 288 293
247 249 250 252 252 253 255 253 266 265 258 259 257 259 261 266 271 272 275 278 281 283 286 287 288 292 299 301 305 301 293 287 284 282 277 277 278 281 280 280 281 281 283 283 284 286 287 288 288
247 248 250 254 253 253 254 257 261 266 266 263 264 264 266 267 267 271 274 276 278 281 283 282 284 287 293 298 305 303 299 292 288 284 282 277 278 278 278 278 279 281 282 282 283 285 286 288 289
245 247 249 252 254 254 253 256 261 267 269 270 267 266 267 269 269 271 272 273 276 277 278 281 282 284 288 296 303 305 296 293 290 286 281 281 281 280 281 282 282 281 282 284 284 285 286 287 286
245 246 246 249 252 252 258 257 260 263 269 271 273 272 268 267 269 270 272 274 274 275 277 279 281 283 290 294 298 305 301 290 289 288 285 281 281 282 283 282 281 282 284 284 283 283 284 285 285
245 248 250 250 250 255 257 255 259 260 264 266 268 272 275 276 273 271 270 271 272 272 273 277 282 286 289 294 300 304 298 290 288 288 285 282 279 280 283 283 284 284 283 283 282 282 282 283 283
248 248 250 252 253 253 255 256 259 262 264 267 271 270 274 277 278 279 276 274 273 276 277 277 278 282 287 295 300 300 292 286 283 280 280 280 282 285 286 286 285 285 285 284 283 283 282 282 282